| time (UTC) | temp F | wind direction | speed MPH | gust MPH | rain 1hr in | rain 24hr in | rain mn in | humidity % | barometer mb |
| 20260503032235 | 56 | 136 | 0.0 | 0.0 | 0.00 | 0.00 | 0.06 | 44 | 1018.5 |
| 20260503030734 | 56 | 153 | 0.0 | 0.0 | 0.00 | 0.00 | 0.06 | 43 | 1018.4 |
| 20260503025233 | 57 | 148 | 0.0 | 0.0 | 0.00 | 0.00 | 0.06 | 42 | 1018.4 |
| 20260503020730 | 56 | 145 | 0.0 | 0.0 | 0.00 | 0.00 | 0.06 | 41 | 1018.2 |
| 20260503015229 | 57 | 145 | 0.0 | 0.0 | 0.00 | 0.00 | 0.06 | 40 | 1018.1 |
| 20260503013728 | 58 | 145 | 0.0 | 0.0 | 0.00 | 0.00 | 0.06 | 40 | 1018.0 |
| 20260503012227 | 60 | 143 | 0.0 | 0.0 | 0.00 | 0.00 | 0.06 | 36 | 1018.0 |
| 20260503010726 | 63 | 143 | 0.0 | 0.0 | 0.00 | 0.00 | 0.06 | 33 | 1018.1 |
| 20260503005225 | 64 | 143 | 0.0 | 0.0 | 0.00 | 0.00 | 0.06 | 31 | 1018.2 |
| 20260503003724 | 65 | 142 | 0.0 | 0.0 | 0.00 | 0.00 | 0.06 | 31 | 1018.1 |
| 20260503000722 | 68 | 160 | 0.0 | 0.0 | 0.00 | 0.00 | 0.06 | 25 | 1018.4 |
| 20260502233720 | 71 | 229 | 0.0 | 0.0 | 0.00 | 0.00 | 0.06 | 24 | 1018.7 |
| 20260502232220 | 72 | 151 | 0.0 | 0.0 | 0.00 | 0.00 | 0.06 | 23 | 1018.9 |
| 20260502223717 | 72 | 210 | 0.0 | 0.0 | 0.00 | 0.00 | 0.06 | 26 | 1019.1 |
| 20260502222216 | 72 | 192 | 0.0 | 0.0 | 0.00 | 0.00 | 0.06 | 27 | 1019.1 |
| 20260502220714 | 72 | 215 | 0.0 | 1.0 | 0.00 | 0.00 | 0.06 | 26 | 1019.2 |
| 20260502215214 | 72 | 210 | 0.0 | 1.0 | 0.00 | 0.00 | 0.06 | 29 | 1019.4 |
| 20260502213713 | 71 | 280 | 0.0 | 1.0 | 0.00 | 0.00 | 0.06 | 29 | 1019.5 |
| 20260502212212 | 70 | 310 | 0.0 | 1.0 | 0.00 | 0.00 | 0.06 | 28 | 1019.8 |
| 20260502210711 | 70 | 8 | 0.0 | 1.0 | 0.00 | 0.00 | 0.06 | 28 | 1020.1 |
| 20260502205210 | 69 | 68 | 0.0 | 1.0 | 0.00 | 0.00 | 0.06 | 28 | 1020.2 |
| 20260502203709 | 69 | 215 | 0.0 | 0.0 | 0.00 | 0.00 | 0.06 | 32 | 1020.4 |
| 20260502202208 | 69 | 335 | 0.0 | 1.0 | 0.00 | 0.00 | 0.06 | 29 | 1020.6 |
| 20260502200707 | 68 | 190 | 0.0 | 1.0 | 0.00 | 0.00 | 0.06 | 33 | 1020.7 |
| 20260502193705 | 68 | 18 | 0.0 | 3.0 | 0.00 | 0.00 | 0.06 | 34 | 1020.8 |
| 20260502192204 | 68 | 56 | 0.0 | 1.0 | 0.00 | 0.00 | 0.06 | 33 | 1021.0 |
| 20260502190703 | 66 | 46 | 0.0 | 1.0 | 0.00 | 0.00 | 0.06 | 35 | 1021.3 |
| 20260502185202 | 66 | 102 | 0.0 | 1.0 | 0.00 | 0.00 | 0.06 | 36 | 1021.5 |
| 20260502182200 | 64 | 271 | 0.0 | 1.0 | 0.00 | 0.00 | 0.06 | 34 | 1021.9 |
| 20260502180659 | 64 | 86 | 0.0 | 1.0 | 0.00 | 0.00 | 0.06 | 36 | 1022.1 |
| 20260502163654 | 61 | 56 | 0.0 | 1.0 | 0.00 | 0.00 | 0.06 | 39 | 1022.9 |
| 20260502162152 | 61 | 108 | 1.0 | 2.0 | 0.00 | 0.00 | 0.06 | 39 | 1022.9 |
| 20260502160651 | 60 | 148 | 0.0 | 1.0 | 0.00 | 0.00 | 0.06 | 45 | 1023.0 |
| 20260502152149 | 57 | 113 | 1.0 | 1.0 | 0.00 | 0.00 | 0.06 | 46 | 1023.1 |
| 20260502150648 | 57 | 58 | 0.0 | 4.0 | 0.00 | 0.00 | 0.06 | 47 | 1023.1 |
| 20260502130640 | 46 | 32 | 0.0 | 1.0 | 0.00 | 0.00 | 0.06 | 84 | 1022.4 |
| 20260502123638 | 42 | 41 | 0.0 | 0.0 | 0.00 | 0.00 | 0.06 | 92 | 1022.1 |
| 20260502122137 | 40 | 47 | 0.0 | 0.0 | 0.00 | 0.00 | 0.06 | 95 | 1021.9 |
| 20260502120636 | 40 | 32 | 0.0 | 1.0 | 0.00 | 0.00 | 0.06 | 96 | 1021.6 |
| 20260502115135 | 40 | 60 | 0.0 | 0.0 | 0.00 | 0.00 | 0.06 | 96 | 1021.5 |
| 20260502113634 | 39 | 352 | 0.0 | 0.0 | 0.00 | 0.00 | 0.06 | 95 | 1021.3 |
| 20260502112134 | 39 | 349 | 0.0 | 0.0 | 0.00 | 0.00 | 0.06 | 95 | 1021.1 |
| 20260502110632 | 39 | 349 | 0.0 | 0.0 | 0.00 | 0.00 | 0.06 | 94 | 1021.0 |
| 20260502105131 | 40 | 349 | 0.0 | 0.0 | 0.00 | 0.00 | 0.06 | 94 | 1020.9 |
| 20260502103630 | 40 | 349 | 0.0 | 0.0 | 0.00 | 0.00 | 0.05 | 94 | 1020.9 |
| 20260502100628 | 42 | 349 | 0.0 | 0.0 | 0.00 | 0.00 | 0.05 | 94 | 1020.8 |
| 20260502090625 | 46 | 39 | 1.0 | 1.0 | 0.00 | 0.00 | 0.05 | 95 | 1020.6 |
| 20260502065116 | 50 | 118 | 0.0 | 0.0 | 0.00 | 0.00 | 0.05 | 91 | 1020.3 |
| 20260502063615 | 50 | 239 | 0.0 | 0.0 | 0.00 | 0.00 | 0.04 | 90 | 1020.9 |
| 20260502062114 | 50 | 239 | 0.0 | 0.0 | 0.00 | 0.00 | 0.04 | 89 | 1020.3 |
| 20260502060613 | 51 | 142 | 0.0 | 0.0 | 0.00 | 0.00 | 0.03 | 88 | 1020.4 |
| 20260502055112 | 51 | 141 | 0.0 | 0.0 | 0.00 | 0.00 | 0.03 | 85 | 1020.0 |
| 20260502052110 | 52 | 260 | 0.0 | 1.0 | 0.00 | 0.00 | 0.01 | 84 | 1020.3 |
| 20260502050609 | 52 | 33 | 0.0 | 1.0 | 0.00 | 0.00 | 0.01 | 79 | 1020.1 |
| 20260502045109 | 54 | 156 | 0.0 | 0.0 | 0.00 | 0.00 | 0.00 | 75 | 1019.7 |
| 20260502042107 | 54 | 231 | 0.0 | 0.0 | 0.00 | 0.00 | 0.00 | 68 | 1019.3 |
| 20260502040605 | 55 | 244 | 0.0 | 1.0 | 0.00 | 0.00 | 0.00 | 65 | 1019.3 |
| 20260502035104 | 54 | 104 | 0.0 | 0.0 | 0.00 | 0.00 | 0.00 | 68 | 1018.9 |
| 20260502033603 | 54 | 155 | 0.0 | 0.0 | 0.00 | 0.00 | 0.00 | 68 | 1019.6 |